Overview Statistics Trail Chart Weather Telemetry Raw packets
 

This is the latest recevied weather packets stored in our database for station/object OK2ILA-10. If no packets are shown the sender has not sent any weather packets the latest 10 day(s).

<< 43 44 45 46 47 48 49 >>
Time Temp. Humidity Pressure Rain* Wind** Luminosity Snow
1788334912 25.56° C 46% 1022.5 hPa - - - -
1788334317 25° C 45% 1022.5 hPa - - - -
1788334312 25° C 45% 1022.5 hPa - - - -
1788333717 24.44° C 47% 1022.4 hPa - - - -
1788333712 24.44° C 47% 1022.4 hPa - - - -
1788333112 25° C 46% 1022.4 hPa - - - -
1788332511 22.78° C 52% 1022.2 hPa - - - -
1788331911 20.56° C 56% 1022.1 hPa - - - -
1788331317 21.11° C 56% 1022.1 hPa - - - -
1788331311 21.11° C 56% 1022.1 hPa - - - -
1788330711 17.22° C 66% 1022 hPa - - - -
1788330124 16.11° C 68% 1022.1 hPa - - - -
1788330111 16.11° C 68% 1022.1 hPa - - - -
1788329517 15.56° C 69% 1022 hPa - - - -
1788329510 15.56° C 69% 1022 hPa - - - -
1788328917 15° C 70% 1022.1 hPa - - - -
1788328910 15° C 70% 1022.1 hPa - - - -
1788328310 15° C 71% 1022.1 hPa - - - -
1788327716 14.44° C 71% 1022.3 hPa - - - -
1788327709 14.44° C 71% 1022.3 hPa - - - -
1788327109 13.89° C 73% 1022.2 hPa - - - -
1788326509 12.78° C 73% 1022.2 hPa - - - -
1788325908 12.22° C 74% 1022.1 hPa - - - -
1788325340 11.67° C 73% 1022.2 hPa - - - -
1788325336 11.67° C 73% 1022.2 hPa - - - -

* Rain since midnight (hover to see other rain measurements)
** Current wind speed in m/s (hover to see current wind gust speed)